This demonstration page uses our WeatherBlox Daily Observations layout. Learn more.

Left ArrowRight Arrow

38.83388, -104.82136

Hourly Observations for April 30, 2017

Temp ( °F °C ) Dew Point ( °F °C ) Humidity (%) Winds ( mph kmh ) Pressure ( in mb ) Visibility ( mi km ) Precip ( " mm )
12:58 am 00:58 Mostly Cloudy 28 -2.4 15 -9.2 60 60 NW 22 35 29.82 1010 10 16 0.00 0.00
1:50 am 01:50 Mostly Cloudy with Light Snow 28 -2 14 -10 55 55 NW 31 50 29.77 1008 10 16 0.00 0.00
1:58 am 01:58 Mostly Cloudy with Light Snow 28 -2.5 14 -9.8 58 58 NW 35 56 29.77 1008 10 16 0.00 0.00
2:58 am 02:58 Windy with Snow Showers Likely 28 -2.2 5 -14.9 37 37 NW 28 44 29.70 1006 7 11 0.00 0.00
2:59 am 02:59 Windy with Snow Showers Likely 28 -2 5 -15 37 37 NW 31 50 29.70 1006 10 16 0.00 0.00
3:25 am 03:25 Mostly Cloudy 28 -2 1 -17 31 31 NNW 28 44 29.71 1006 10 16 0.00 0.00
3:58 am 03:58 Clear 28 -2 5 -15.1 36 36 NW 26 43 29.68 1005 10 16 0.00 0.00
4:58 am 04:58 Mostly Cloudy 29 -1.9 10 -12.3 45 45 N 23 37 29.63 1003 10 16 0.00 0.00
5:58 am 05:58 Cloudy 27 -2.9 13 -10.3 57 57 N 20 31 29.67 1005 10 16 0.00 0.00
6:58 am 06:58 Mostly Cloudy 30 -1.3 11 -11.9 45 45 NNW 23 37 29.64 1004 10 16 0.00 0.00
7:58 am 07:58 Mostly Cloudy 31 -0.8 11 -11.9 43 43 NNW 22 35 29.66 1004 10 16 0.00 0.00
8:58 am 08:58 Mostly Cloudy 33 0.3 12 -11.1 42 42 N 18 30 29.67 1005 10 16 0.00 0.00
9:59 am 09:59 Sunny 34 1.3 13 -10.8 40 40 N 21 33 29.67 1005 10 16 0.00 0.00
10:58 am 10:58 Sunny 38 3.1 15 -9.7 39 39 N 17 28 29.67 1005 10 16 0.00 0.00
11:58 am 11:58 Sunny 40 4.3 14 -10.1 35 35 N 20 31 29.62 1003 10 16 0.00 0.00
12:59 pm 12:59 Sunny 42 5.3 15 -9.5 34 34 N 17 28 29.60 1003 10 16 0.00 0.00
1:58 pm 13:58 Sunny 43 6.1 17 -8.2 35 35 NNE 16 26 29.58 1002 10 16 0.00 0.00
2:58 pm 14:58 Sunny 46 7.8 18 -7.9 32 32 N 9 15 29.56 1001 10 16 0.00 0.00
3:32 pm 15:32 Sunny 46 8 18 -8 32 32 NNE 13 20 29.56 1001 10 16 0.00 0.00
3:58 pm 15:58 Sunny 46 8 17 -8.2 31 31 N 17 28 29.55 1001 10 16 0.00 0.00
4:58 pm 16:58 Sunny 48 8.8 16 -8.8 28 28 N 15 24 29.53 1000 10 16 0.00 0.00
6:58 pm 18:58 Sunny 46 7.9 18 -7.8 32 32 W 5 7 29.58 1002 10 16 0.00 0.00
7:58 pm 19:58 Clear 46 7.7 17 -8.1 32 32 N 7 11 29.57 1001 10 16 0.00 0.00
8:58 pm 20:58 Partly Cloudy 47 8.1 16 -8.8 29 29 NW 7 11 29.59 1002 10 16 0.00 0.00
9:58 pm 21:58 Clear 46 7.7 16 -8.7 31 31 SSW 3 6 29.57 1002 10 16 0.00 0.00
10:58 pm 22:58 Clear 43 6.1 20 -6.9 39 39 NNE 7 11 29.57 1002 10 16 0.00 0.00
11:58 pm 23:58 Clear 43 6.1 18 -7.6 37 37 SSE 7 11 29.57 1002 10 16 0.00 0.00

Powered by AerisWeather